OPS 7218 (TRANSIT 16) 1 02807U 67048A 25258.51224265 .00000092 00000+0 12766-3 0 9996 2 02807 89.6820 356.8960 0020367 17.0742 354.8168 13.50694956870859 OPS 4947 (TRANSIT 17) 1 02965U 67092A 25258.60292796 .00000092 00000+0 11766-3 0 9993 2 02965 89.2489 31.1312 0049236 130.7431 241.2762 13.53424326859052 OPS 7034 (TRANSIT 18) 1 03133U 68012A 25258.62031903 .00000112 00000+0 15377-3 0 9992 2 03133 90.0194 273.4387 0075836 66.5927 57.2589 13.51537004557285 NNSS 19 (TRANSIT 19) 1 04507U 70067A 25258.36178866 .00000134 00000+0 17487-3 0 9990 2 04507 89.9951 234.5058 0171449 188.4204 171.4063 13.51276652710287 NNSS 20 (TRANSIT 20) 1 06909U 73081A 25258.54782252 .00000191 00000+0 18630-3 0 9991 2 06909 89.8445 256.4273 0154202 343.5328 16.0856 13.71383988791526 TRANSAT 1 10457U 77106A 25258.59141552 .00000074 00000+0 10133-3 0 9993 2 10457 89.6399 81.7493 0027447 88.1285 341.0910 13.48924807355558 NOVA 1 1 12458U 81044A 25258.56419102 .00000078 00000+0 16446-3 0 9995 2 12458 89.8463 92.6625 0013939 354.7505 58.9630 13.23262638140208 NOVA 3 1 15362U 84110A 25258.57906578 .00000064 00000+0 13243-3 0 9995 2 15362 90.1137 79.5277 0030706 209.5998 221.6650 13.23029845975331 OSCAR 30 1 15935U 85066A 25258.59451809 .00000086 00000+0 14275-3 0 9996 2 15935 90.1609 98.4353 0166983 333.0569 83.8306 13.36055617952768 OSCAR 24 1 15936U 85066B 25258.56997479 .00000083 00000+0 13606-3 0 9996 2 15936 90.1727 90.7782 0168173 339.5769 79.5140 13.35914699954669 POLAR BEAR 1 17070U 86088A 25258.59834524 .00000112 00000+0 10494-3 0 9991 2 17070 89.6230 187.2694 0040561 29.1762 145.1060 13.75225465947675 OSCAR 27 1 18361U 87080A 25258.53106093 .00000099 00000+0 14753-3 0 9991 2 18361 90.3654 76.0042 0105585 116.8365 244.3626 13.44882132863719 OSCAR 29 1 18362U 87080B 25258.42963750 .00000108 00000+0 16366-3 0 9994 2 18362 90.3665 76.4523 0106704 139.6699 247.8432 13.44427568863235 OSCAR 23 1 19070U 88033A 25258.57210745 .00000063 00000+0 10771-3 0 9999 2 19070 90.3256 13.6192 0191028 65.9684 307.1760 13.27768244810833 OSCAR 32 1 19071U 88033B 25258.56009668 .00000050 00000+0 82571-4 0 9993 2 19071 90.3260 13.7463 0189175 53.0468 319.9294 13.27935392810955 NOVA 2 1 19223U 88052A 25258.57462458 .00000054 00000+0 10751-3 0 9998 2 19223 89.9782 78.4122 0028658 255.7273 173.5999 13.22921287797829 OSCAR 25 1 19419U 88074A 25258.57147716 .00000086 00000+0 13089-3 0 9998 2 19419 90.0369 19.9204 0097583 137.2122 234.3745 13.42600955814576 OSCAR 31 1 19420U 88074B 25258.59317887 .00000078 00000+0 11734-3 0 9996 2 19420 90.0386 20.2561 0095898 131.4282 240.5018 13.42565175814686